[[{"header":{"parameterUnit":"m.s-1","parameterCategory":1,"la1":30.2991,"la2":30.254,"lo1":-89.0895,"lo2":-89.0444,"dy":0.0017,"dx":0.0017,"nx":28,"ny":28,"refTime":"2024-06-17T03:00:00:Z","depth":0,"parameterNumber":2,"parameterNumberName":"U-component_of_WINDS"},"data":[0,0,0,0,0,0,0,0,0,0,0,0,0,0,0,0,0,0,0,0,0,0,0,0,0,0,0,0,0,0,0,0,0,0,0,0,0,0,0,0,0,0,0,0,0,0,0,0,0,0,0,0,0,0,0,0,0,0,-6.0923,-6.0923,0,-6.0965,-6.0966,-6.0966,-6.0878,-6.0876,-6.0873,-6.087,-6.091,-6.0914,-6.0918,0,0,0,0,0,0,0,0,0,0,0,0,0,-6.0762,-6.0766,-6.0923,-6.0924,-6.0924,-6.0965,-6.0966,-6.0966,-6.0879,-6.0876,-6.0872,-6.0869,-6.0909,-6.0913,-6.0918,0,0,0,0,0,0,0,0,0,0,0,0,0,-6.0821,-6.0767,-6.0923,-6.0885,-6.0883,-6.0965,-6.0966,-6.0967,-6.088,-6.0875,-6.0871,-6.0867,-6.0908,-6.0913,-6.0918,-6.1038,0,0,-6.0936,-6.0938,0,0,0,0,0,0,0,0,-6.0818,-6.0827,-6.089,-6.0888,-6.0885,-6.0912,-6.0924,-6.0991,-6.0881,-6.0881,-6.087,-6.0865,-6.0914,-6.0919,-6.0936,-6.104,-6.1042,-6.0936,-6.0939,-6.0942,-6.0943,0,0,0,0,0,0,0,-6.0814,-6.0825,-6.094,-6.0891,-6.0888,-6.0865,-6.0869,-6.0936,-6.0921,-6.088,-6.0874,-6.0881,-6.0912,-6.0931,-6.0936,-6.1043,-6.0936,-6.0941,-6.0944,-6.0946,-6.1245,-6.1249,0,0,0,0,0,0,-6.0815,-6.0822,-6.0938,-6.0941,-6.084,-6.0872,-6.0876,-6.0908,-6.092,-6.0918,-6.0884,-6.0876,-6.0924,-6.093,-6.0938,-6.1076,-6.0942,-6.0947,-6.095,-6.124,-6.1246,-6.125,0,0,0,0,0,0,-6.0812,-6.0826,-6.0936,-6.088,-6.0892,-6.0879,-6.0916,-6.0911,-6.093,-6.0923,-6.0919,-6.0907,-6.092,-6.093,-6.1014,-6.1076,-6.095,-6.0955,-6.1235,-6.1242,-6.1248,-6.1356,0,0,0,0,0,0,-6.0808,-6.0826,-6.0872,-6.0882,-6.0895,-6.1013,-6.092,-6.0915,-6.094,-6.093,-6.0943,-6.0941,-6.0918,-6.1006,-6.1019,-6.1082,-6.0959,-6.1229,-6.1238,-6.1246,-6.1347,-6.1366,-6.1382,0,0,0,0,0,-6.0802,-6.0901,-6.0875,-6.0889,-6.0953,-6.1017,-6.1025,-6.0997,-6.0946,-6.0991,-6.0986,-6.094,-6.1068,-6.1015,-6.1029,-6.1095,-6.1225,-6.1235,-6.1245,-6.1339,-6.1362,-6.1382,0,0,0,0,0,0,-6.0898,-6.0901,-6.0873,-6.0977,-6.0998,-6.1002,-6.1059,-6.1023,-6.1058,-6.1047,-6.101,-6.1014,-6.1104,-6.1108,-6.1049,-6.121,-6.1137,-6.1151,-6.1204,-6.1226,-6.1243,-6.1239,-6.0964,0,0,0,0,0,-6.0932,-6.0985,-6.0984,-6.1076,-6.1088,-6.1072,-6.1099,-6.1076,-6.1095,-6.1103,-6.1104,-6.1124,-6.1168,-6.1198,-6.1238,-6.1348,-6.1348,-6.14,-6.1418,-6.1432,-6.1444,-6.15,-6.1522,-6.1284,-6.1284,-6.1284,0,0,-6.1001,-6.1009,-6.1045,-6.1096,-6.1109,-6.1163,-6.108,-6.1141,-6.118,-6.1112,-6.119,-6.1193,-6.1212,-6.1309,-6.1351,-6.1315,-6.151,-6.1446,-6.1457,-6.146,-6.1512,-6.1535,-6.1555,-6.1291,-6.129,-6.1289,0,0,-6.1154,-6.1167,-6.1244,-6.1259,-6.128,-6.1269,-6.1288,-6.1298,-6.1296,-6.1375,-6.1325,-6.137,-6.1448,-6.1463,-6.1481,-6.164,-6.1597,-6.1654,-6.1745,-6.18,-6.1819,-6.1835,-6.1889,-6.1909,-6.1666,-6.1666,-6.1666,0,-6.1237,-6.1317,-6.1288,-6.1352,-6.1375,-6.1318,-6.1394,-6.141,-6.1443,-6.1459,-6.1418,-6.1513,-6.1522,-6.1621,-6.1659,-6.1677,-6.1695,-6.1651,-6.1819,-6.1835,-6.1849,-6.19,-6.1921,-6.1673,-6.1672,-6.1671,-6.1671,0,-6.1416,-6.1473,-6.1533,-6.1566,-6.1596,-6.1667,-6.1646,-6.168,-6.1655,-6.1648,-6.1727,-6.1737,-6.1777,-6.1799,-6.1775,-6.1894,-6.187,-6.1825,-6.175,-6.1879,-6.1926,-6.1945,-6.1682,-6.168,-6.1678,-6.1676,0,0,-6.1629,-6.1646,-6.1668,-6.1682,-6.1701,-6.1743,-6.1811,-6.1851,-6.1879,-6.1904,-6.1957,-6.2025,-6.1982,-6.2003,-6.198,-6.2029,-6.215,-6.1977,-6.1977,-6.2006,-6.2279,-6.231,-6.2334,-6.2124,-6.2128,-6.2131,-6.2276,0,-6.1779,-6.1894,-6.187,-6.1983,-6.2033,-6.1979,-6.2037,-6.2054,-6.2049,-6.209,-6.2084,-6.2131,-6.2074,-6.2085,-6.2131,-6.2126,-6.2204,-6.2116,-6.2171,-6.2173,-6.2165,-6.2359,-6.2393,-6.2529,-6.2295,-6.2298,-6.23,0,-6.1968,-6.2,-6.2118,-6.2128,-6.2148,-6.2201,-6.2234,-6.2275,-6.2293,-6.2286,-6.2309,-6.2276,-6.2341,-6.2268,-6.2355,-6.2295,-6.2317,-6.2318,-6.2322,-6.2324,-6.2242,-6.2362,-6.2573,-6.2592,-6.2329,-6.2327,-6.2325,0,-6.2108,-6.2181,-6.226,-6.2274,-6.2288,-6.2326,-6.2333,-6.2347,-6.2372,-6.2402,-6.2417,-6.2455,-6.2474,-6.2503,-6.248,-6.243,-6.257,-6.2496,-6.2564,-6.2564,-6.2593,-6.2591,-6.2807,-6.2613,-6.2612,-6.2612,-6.2611,0,-6.2275,-6.2349,-6.2323,-6.2372,-6.2452,-6.2423,-6.2503,-6.2504,-6.2516,-6.2563,-6.2519,-6.2564,-6.2533,-6.2574,-6.2558,-6.2631,-6.2641,-6.2635,-6.2629,-6.2637,-6.2638,-6.2648,-6.2637,-6.2617,-6.2616,-6.2615,-6.2614,0,-6.2444,-6.243,-6.2512,-6.2519,-6.2522,-6.2581,-6.2586,-6.263,-6.2622,-6.2681,-6.2694,-6.2681,-6.2727,-6.2709,-6.2758,-6.2747,-6.2839,-6.2822,-6.2833,-6.2828,-6.2895,-6.2888,-6.3123,-6.3151,-6.2942,-6.2944,-6.2946,0,-6.255,-6.2606,-6.2618,-6.2647,-6.2657,-6.2704,-6.2729,-6.2703,-6.2731,-6.2755,-6.2796,-6.2839,-6.2871,-6.2948,-6.2942,-6.2979,-6.296,-6.304,-6.2965,-6.2971,-6.2958,-6.2954,-6.2958,-6.3054,-6.3057,-6.3059,-6.306,0,-6.274,-6.273,-6.2769,-6.2806,-6.2837,-6.2865,-6.2888,-6.2913,-6.2888,-6.2922,-6.2969,-6.2994,-6.3044,-6.3086,-6.3119,-6.3125,-6.3088,-6.3084,-6.3101,-6.3109,-6.3112,-6.3108,-6.2871,-6.3078,-6.3077,-6.3075,-6.3074,-6.3074,-6.2878,-6.2924,-6.294,-6.2984,-6.2999,-6.3022,-6.3063,-6.306,-6.31,-6.3138,-6.3121,-6.3175,-6.3189,-6.323,-6.3241,-6.3282,-6.325,-6.3276,-6.3281,-6.3287,-6.3295,-6.3108,-6.3288,-6.3287,-6.3287,-6.3286,-6.3286,0,-6.3063,-6.3071,-6.3112,-6.3146,-6.318,-6.3144,-6.3168,-6.3198,-6.3247,-6.3264,-6.3297,-6.3351,-6.3391,-6.3389,-6.3426,-6.3459,-6.3443,-6.3469,-6.3465,-6.3466,-6.3322,-6.3302,-6.3482,-6.3482,-6.3482,-6.3481,-6.3481,-6.3481,-6.3163,-6.3238,-6.323,-6.3311,-6.3317,-6.337,-6.3387,-6.3406,-6.342,-6.3482,-6.3515,-6.3514,-6.3523,-6.356,-6.3595,-6.3593,-6.3607,-6.364,-6.3632,-6.3496,-6.3477,-6.3458,-6.3439,-6.3644,-6.3644,-6.3772,-6.3773,-6.3774]},{"header":{"parameterUnit":"m.s-1","parameterCategory":1,"la1":30.2991,"la2":30.254,"lo1":-89.0895,"lo2":-89.0444,"dy":0.0017,"dx":0.0017,"nx":28,"ny":28,"refTime":"2024-06-17T03:00:00:Z","depth":0,"parameterNumber":3,"parameterNumberName":"V-component_of_WINDS"},"data":[0,0,0,0,0,0,0,0,0,0,0,0,0,0,0,0,0,0,0,0,0,0,0,0,0,0,0,0,0,0,0,0,0,0,0,0,0,0,0,0,0,0,0,0,0,0,0,0,0,0,0,0,0,0,0,0,0,0,3.8149,3.815,0,3.8204,3.8204,3.8205,3.8158,3.8157,3.8155,3.8153,3.8206,3.821,3.8213,0,0,0,0,0,0,0,0,0,0,0,0,0,3.8002,3.8005,3.8149,3.815,3.815,3.8204,3.8204,3.8205,3.8159,3.8156,3.8154,3.8152,3.8205,3.8209,3.8213,0,0,0,0,0,0,0,0,0,0,0,0,0,3.8062,3.8006,3.8149,3.8134,3.8133,3.8204,3.8204,3.8205,3.8159,3.8156,3.8153,3.8151,3.8204,3.8209,3.8214,3.8301,0,0,3.8228,3.823,0,0,0,0,0,0,0,0,3.8059,3.8068,3.8135,3.8135,3.8134,3.8171,3.8172,3.8237,3.816,3.8149,3.8153,3.8149,3.8197,3.8202,3.8219,3.8304,3.8306,3.8229,3.8232,3.8234,3.8235,0,0,0,0,0,0,0,3.8055,3.8065,3.8171,3.8136,3.8136,3.8123,3.8129,3.8184,3.8188,3.815,3.8147,3.8154,3.8196,3.8214,3.822,3.8307,3.8229,3.8233,3.8236,3.8238,3.8466,3.8469,0,0,0,0,0,0,3.8052,3.8062,3.8169,3.8172,3.8089,3.8128,3.8134,3.8162,3.8188,3.8189,3.8156,3.8152,3.8207,3.8214,3.8221,3.8325,3.8234,3.8238,3.8241,3.8463,3.8467,3.847,0,0,0,0,0,0,3.8049,3.8062,3.8167,3.8116,3.8129,3.8134,3.8166,3.8165,3.8183,3.8193,3.8193,3.8174,3.8205,3.8214,3.8282,3.8326,3.824,3.8245,3.8459,3.8464,3.8468,3.8533,0,0,0,0,0,0,3.8045,3.8062,3.8095,3.8117,3.8131,3.8227,3.8168,3.8168,3.8192,3.8186,3.821,3.8211,3.8204,3.8275,3.8287,3.8331,3.8249,3.8455,3.8461,3.8467,3.8527,3.854,3.855,0,0,0,0,0,3.804,3.8111,3.8097,3.8111,3.8174,3.823,3.8238,3.8229,3.8196,3.8229,3.8235,3.821,3.832,3.8282,3.8295,3.8342,3.8452,3.8459,3.8466,3.8522,3.8537,3.855,0,0,0,0,0,0,3.8093,3.8114,3.8099,3.8179,3.8203,3.8222,3.8264,3.8245,3.8279,3.8272,3.8259,3.8265,3.8335,3.8345,3.8303,3.8428,3.838,3.839,3.8418,3.8433,3.8444,3.844,3.8253,0,0,0,0,0,3.8115,3.8159,3.8174,3.8243,3.8256,3.8258,3.8282,3.8274,3.8297,3.8307,3.8318,3.8342,3.8382,3.8408,3.8445,3.8529,3.8533,3.8567,3.8579,3.8588,3.8597,3.8641,3.8656,3.8493,3.8493,3.8493,0,0,3.8158,3.8175,3.8204,3.8254,3.8272,3.8317,3.8267,3.8317,3.835,3.8314,3.8378,3.8388,3.8413,3.8489,3.8523,3.8499,3.8643,3.8598,3.8605,3.8608,3.865,3.8665,3.8679,3.8498,3.8497,3.8496,0,0,3.8261,3.8279,3.8338,3.8357,3.8385,3.8386,3.84,3.8422,3.8427,3.8491,3.8465,3.8504,3.8573,3.8592,3.8611,3.8722,3.87,3.8735,3.8795,3.8838,3.8851,3.8862,3.89,3.8914,3.8743,3.8744,3.8744,0,3.8312,3.838,3.8371,3.8423,3.8446,3.8417,3.8476,3.8495,3.8533,3.8549,3.8522,3.8608,3.8624,3.8703,3.873,3.8747,3.8762,3.8731,3.885,3.8861,3.8871,3.8908,3.8922,3.8747,3.8747,3.8747,3.8746,0,3.844,3.8488,3.8532,3.8571,3.8599,3.8654,3.8653,3.8682,3.8671,3.8675,3.874,3.8758,3.8798,3.8816,3.8806,3.8894,3.8879,3.8852,3.8804,3.8891,3.8925,3.8939,3.8753,3.8752,3.8751,3.875,0,0,3.8577,3.861,3.8627,3.8643,3.8672,3.8708,3.8762,3.8802,3.8827,3.8855,3.8899,3.8958,3.8933,3.8955,3.8946,3.8985,3.907,3.8952,3.8953,3.8973,3.9167,3.9187,3.9203,3.9056,3.9059,3.9061,3.9165,0,3.868,3.8775,3.8768,3.8857,3.89,3.8874,3.8921,3.8943,3.8948,3.8985,3.899,3.9032,3.8996,3.9009,3.9046,3.9052,3.9109,3.9045,3.9096,3.9098,3.9089,3.9221,3.9242,3.9339,3.9178,3.918,3.9182,0,3.8812,3.8845,3.8939,3.8961,3.8979,3.9021,3.9057,3.9093,3.9118,3.9118,3.9143,3.9128,3.9182,3.9134,3.9208,3.9164,3.9185,3.9191,3.9195,3.9198,3.9144,3.9227,3.937,3.9384,3.9203,3.9201,3.92,0,3.8901,3.8969,3.9033,3.9049,3.9076,3.9107,3.9119,3.9141,3.9166,3.9197,3.9213,3.925,3.927,3.9299,3.9294,3.926,3.9369,3.9321,3.937,3.937,3.9393,3.9391,3.954,3.9409,3.9408,3.9408,3.9408,0,3.9016,3.9074,3.9073,3.9113,3.9177,3.9169,3.9232,3.9241,3.9261,3.9301,3.9281,3.9319,3.9311,3.9349,3.9346,3.9407,3.9416,3.9418,3.9416,3.9419,3.9419,3.9431,3.9424,3.9412,3.9411,3.941,3.941,0,3.9125,3.9128,3.9196,3.9217,3.9223,3.9269,3.9287,3.9324,3.9328,3.9379,3.939,3.9396,3.9439,3.9438,3.9488,3.9485,3.956,3.9551,3.9551,3.9549,3.9598,3.9593,3.9759,3.978,3.9636,3.9638,3.9639,0,3.9198,3.9242,3.9268,3.9293,3.9308,3.935,3.9375,3.9369,3.9396,3.9428,3.9461,3.9502,3.9535,3.9606,3.9614,3.9651,3.9642,3.9698,3.9648,3.9649,3.9642,3.9639,3.9642,3.9707,3.9709,3.971,3.9711,0,3.9326,3.9325,3.9362,3.94,3.943,3.9459,3.9486,3.9508,3.9505,3.9536,3.9581,3.9607,3.9657,3.9699,3.9735,3.9747,3.9729,3.9727,3.974,3.9743,3.9741,3.9742,3.9577,3.9723,3.9722,3.9721,3.972,3.972,3.9418,3.9455,3.948,3.9522,3.9541,3.9567,3.9603,3.9611,3.9649,3.969,3.9684,3.9734,3.9757,3.9804,3.9819,3.9858,3.9838,3.9857,3.9862,3.9866,3.9871,3.9737,3.9864,3.9864,3.9864,3.9863,3.9863,0,3.9544,3.9558,3.9597,3.9635,3.9668,3.965,3.9678,3.9707,3.9751,3.9775,3.9808,3.9859,3.9899,3.991,3.9949,3.9977,3.997,3.9987,3.9984,3.9987,3.9887,3.9871,3.9993,3.9993,3.9993,3.9993,3.9993,3.9993,3.9613,3.9675,3.9677,3.9749,3.9763,3.9812,3.983,3.9853,3.9872,3.993,3.9963,3.9971,3.999,4.003,4.0065,4.0068,4.0082,4.0103,4.0102,4.0008,3.9995,3.9982,3.9967,4.0107,4.0107,4.0199,4.02,4.02]}]]